map of MDC home
MDC - Airport
Location
City:  Manado, Sulawesi Utara, Indonesia
Name:Sam Ratulangi
ICAO:WAMM
IATA:MDC

Details
Type:Airport (Aerodrome, Airfield)
Use:Public/Civil, International (customs port of entry)
Latitude:132'58"N (1.549447)
Longitude:12455'33"E (124.925878)
Datum:WGS 1984
Elevation:264 ft (80 m)
Variation:0.29E (WMM2015 magnetic declination)
-0.11 annual change
Runways:1
Longest:8691 × 148 ft (2649 × 45 m), paved

Time
Time Zone:UTC+8
Local Time:

Weather
METAR:WAMM 302130Z VRB02KT 9999 FEW022 22/21 Q1010 NOSIG
TAF:WAMM 301100Z 3012/0118 11002KT 9999 FEW022
BECMG 3023/0101 32008KT SCT022 PROB30
TEMPO 0104/0108 7000 -TSRA FEW016CB SCT018
BECMG 0109/0111 12002KT FEW022

Related Locations
Nearby:
Farthest:ALT: 12426 mi / 19998 km
Alenquer [Aeropuerto Alenquer], PA, BR

Find:

   beyond  
but within

Other Information
Maps:
NOTAMs:
Links:
Sources:

  
flag of Indonesia
flag of Sulawesi Utara
  

Sectional Chart

Flight Planning
at skyvector.com

Satellite Image

Google Maps Satellite view

 

Copyright © 2004-2016 Karl L. Swartz. All rights reserved.
The Great Circle Mapper name and logo are trademarks of the Great Circle Mapper.
All other trademarks mentioned herein belong to their respective owners.
Please see credits for attibutions and further copyright information.

  Follow gcmap on Facebook Follow gcmap on Twitter Follow gcmap on Google+ GCmap on LinkedIn

hCard Microformat

Geo Microformat